Location: �clusier
(49.9361°N, 2.7869°E)
Time: 08:34:51
(UTC+00:00)

Spot 2 Rocket - Pass Details

Date: 16 June 2021
Orbit: 757 x 772 km, 98.5° (Epoch: 01 August)

Event Time Altitude Azimuth Distance (km) Brightness Sun altitude
Exits shadow 21:17:53 - 176° (S) 2,499 5.6 -9.3°
Reaches altitude 10° 21:18:25 10° 177° (S) 2,289 5.5 -9.4°
Maximum altitude 21:23:24 62° 258° (WSW) 858 3.9 -9.8°
Drops below altitude 10° 21:28:28 10° 340° (NNW) 2,316 7.5 -10.3°
Sets 21:30:49 0° 343° (NNW) 3,249 8.5 -10.5°
